Location: Aurora Center
(43.5271°N, 98.5894°W)
Time: 00:59:41
(UTC-05:00)

BlueWalker 3 - Pass Details

Date: 18 June 2024
Orbit: 480 x 492 km, 53.2° (Epoch: 15 July)

Event Time Altitude Azimuth Distance (km) Brightness Sun altitude
Rises 04:23:54 0° 307° (NW) 2,539 5.5 -12.7°
Reaches altitude 10° 04:26:09 10° 315° (NW) 1,658 4.6 -12.5°
Maximum altitude 04:29:42 41° 27° (NNE) 709 3.3 -12.0°
Drops below altitude 10° 04:33:16 10° 99° (E) 1,655 5.0 -11.6°
Sets 04:35:31 0° 107° (ESE) 2,534 5.9 -11.4°
